Time,TemperatureF,DewpointF,PressureIn,WindDirection,WindDirectionDegrees,WindSpeedMPH,WindSpeedGustMPH,Humidity,HourlyPrecipIn,Conditions,Clouds,dailyrainin,SoftwareType,DateUTC
2013-01-18 00:07:00,17.2,12.0,30.37,South,172,0.0,5.0,79,0.00,,,0.00,weatherlink.com 1.10,2013-01-18 05:07:00,
2013-01-18 00:22:00,16.9,11.0,30.36,SW,218,0.0,1.0,79,0.00,,,0.00,weatherlink.com 1.10,2013-01-18 05:22:00,
2013-01-18 00:37:00,16.8,11.0,30.35,SW,218,0.0,1.0,79,0.00,,,0.00,weatherlink.com 1.10,2013-01-18 05:37:00,
2013-01-18 00:52:00,16.6,11.0,30.34,SSW,192,0.0,3.0,78,0.00,,,0.00,weatherlink.com 1.10,2013-01-18 05:52:00,
2013-01-18 01:07:00,16.6,11.0,30.35,ESE,110,0.0,4.0,78,0.00,,,0.00,weatherlink.com 1.10,2013-01-18 06:07:00,
2013-01-18 01:22:00,16.5,11.0,30.36,ESE,115,2.0,3.0,79,0.00,,,0.00,weatherlink.com 1.10,2013-01-18 06:22:00,
2013-01-18 01:37:00,16.5,11.0,30.38,SW,219,2.0,4.0,78,0.00,,,0.00,weatherlink.com 1.10,2013-01-18 06:37:00,
2013-01-18 01:52:00,16.2,10.0,30.38,WNW,303,1.0,3.0,77,0.00,,,0.00,weatherlink.com 1.10,2013-01-18 06:52:00,
2013-01-18 02:07:00,15.7,10.0,30.40,NW,319,0.0,6.0,77,0.00,,,0.00,weatherlink.com 1.10,2013-01-18 07:07:00,
2013-01-18 02:22:00,15.4,9.0,30.42,NNW,327,2.0,3.0,77,0.00,,,0.00,weatherlink.com 1.10,2013-01-18 07:22:00,
2013-01-18 02:37:00,15.0,9.0,30.41,West,273,0.0,2.0,78,0.00,,,0.00,weatherlink.com 1.10,2013-01-18 07:37:00,
2013-01-18 02:52:00,14.6,9.0,30.42,NNE,27,0.0,2.0,79,0.00,,,0.00,weatherlink.com 1.10,2013-01-18 07:52:00,
2013-01-18 03:07:00,14.1,9.0,30.40,NNE,20,0.0,4.0,80,0.00,,,0.00,weatherlink.com 1.10,2013-01-18 08:07:00,
2013-01-18 03:22:00,13.7,9.0,30.42,WSW,238,0.0,3.0,81,0.00,,,0.00,weatherlink.com 1.10,2013-01-18 08:22:00,
2013-01-18 03:38:00,13.3,9.0,30.43,North,356,0.0,5.0,82,0.00,,,0.00,weatherlink.com 1.10,2013-01-18 08:38:00,
2013-01-18 03:53:00,13.0,9.0,30.43,NNW,340,1.0,2.0,83,0.00,,,0.00,weatherlink.com 1.10,2013-01-18 08:53:00,
2013-01-18 04:08:00,12.6,8.0,30.45,North,350,2.0,5.0,83,0.00,,,0.00,weatherlink.com 1.10,2013-01-18 09:08:00,
2013-01-18 04:23:00,12.0,8.0,30.46,NW,310,3.0,4.0,82,0.00,,,0.00,weatherlink.com 1.10,2013-01-18 09:23:00,
2013-01-18 04:38:00,11.8,8.0,30.47,NE,37,0.0,2.0,83,0.00,,,0.00,weatherlink.com 1.10,2013-01-18 09:38:00,
2013-01-18 04:53:00,11.6,7.0,30.47,SW,225,1.0,4.0,83,0.00,,,0.00,weatherlink.com 1.10,2013-01-18 09:53:00,
2013-01-18 05:08:00,11.2,6.0,30.49,SE,139,3.0,12.0,79,0.00,,,0.00,weatherlink.com 1.10,2013-01-18 10:08:00,
2013-01-18 05:23:00,10.8,5.0,30.49,SW,225,0.0,9.0,77,0.00,,,0.00,weatherlink.com 1.10,2013-01-18 10:23:00,
2013-01-18 05:38:00,10.4,4.0,30.51,SW,219,3.0,9.0,75,0.00,,,0.00,weatherlink.com 1.10,2013-01-18 10:38:00,
2013-01-18 05:53:00,9.9,4.0,30.52,South,184,5.0,7.0,75,0.00,,,0.00,weatherlink.com 1.10,2013-01-18 10:53:00,
2013-01-18 06:08:00,9.4,2.0,30.54,SSW,195,3.0,11.0,72,0.00,,,0.00,weatherlink.com 1.10,2013-01-18 11:08:00,
2013-01-18 06:23:00,8.9,2.0,30.55,SE,137,1.0,5.0,72,0.00,,,0.00,weatherlink.com 1.10,2013-01-18 11:23:00,
2013-01-18 06:38:00,8.2,1.0,30.56,SW,221,0.0,4.0,73,0.00,,,0.00,weatherlink.com 1.10,2013-01-18 11:38:00,
2013-01-18 06:53:00,7.9,0.0,30.57,South,173,3.0,7.0,70,0.00,,,0.00,weatherlink.com 1.10,2013-01-18 11:53:00,
2013-01-18 07:08:00,7.6,0.0,30.58,SSW,203,3.0,6.0,70,0.00,,,0.00,weatherlink.com 1.10,2013-01-18 12:08:00,
2013-01-18 07:23:00,7.1,-2.0,30.60,NW,316,1.0,5.0,67,0.00,,,0.00,weatherlink.com 1.10,2013-01-18 12:23:00,
2013-01-18 07:39:00,6.7,-2.0,30.61,ENE,57,1.0,7.0,67,0.00,,,0.00,weatherlink.com 1.10,2013-01-18 12:39:00,
2013-01-18 07:54:00,6.7,-2.0,30.61,SW,222,0.0,6.0,68,0.00,,,0.00,weatherlink.com 1.10,2013-01-18 12:54:00,
2013-01-18 08:09:00,8.8,-2.0,30.62,WSW,248,0.0,9.0,63,0.00,,,0.00,weatherlink.com 1.10,2013-01-18 13:09:00,
2013-01-18 08:24:00,9.9,-2.0,30.63,SW,217,2.0,7.0,60,0.00,,,0.00,weatherlink.com 1.10,2013-01-18 13:24:00,
2013-01-18 08:39:00,12.5,0.0,30.64,SW,217,0.0,5.0,58,0.00,,,0.00,weatherlink.com 1.10,2013-01-18 13:39:00,
2013-01-18 08:54:00,12.2,-1.0,30.65,East,84,2.0,8.0,56,0.00,,,0.00,weatherlink.com 1.10,2013-01-18 13:54:00,
2013-01-18 09:09:00,13.1,0.0,30.66,ESE,112,2.0,6.0,57,0.00,,,0.00,weatherlink.com 1.10,2013-01-18 14:09:00,
2013-01-18 09:24:00,12.8,0.0,30.68,SW,215,6.0,9.0,56,0.00,,,0.00,weatherlink.com 1.10,2013-01-18 14:24:00,
2013-01-18 09:39:00,13.4,1.0,30.68,WSW,243,1.0,8.0,57,0.00,,,0.00,weatherlink.com 1.10,2013-01-18 14:39:00,
2013-01-18 09:54:00,15.2,2.0,30.69,NNW,339,2.0,7.0,55,0.00,,,0.00,weatherlink.com 1.10,2013-01-18 14:54:00,
2013-01-18 10:09:00,15.6,2.0,30.69,SW,229,2.0,5.0,54,0.00,,,0.00,weatherlink.com 1.10,2013-01-18 15:09:00,
2013-01-18 10:24:00,15.9,2.0,30.69,NNE,25,2.0,14.0,54,0.00,,,0.00,weatherlink.com 1.10,2013-01-18 15:24:00,
2013-01-18 10:39:00,15.2,2.0,30.70,South,186,6.0,11.0,55,0.00,,,0.00,weatherlink.com 1.10,2013-01-18 15:39:00,
2013-01-18 10:54:00,14.5,2.0,30.70,SSE,158,3.0,18.0,59,0.00,,,0.00,weatherlink.com 1.10,2013-01-18 15:54:00,
2013-01-18 11:10:00,14.5,3.0,30.70,WSW,248,1.0,10.0,61,0.00,,,0.00,weatherlink.com 1.10,2013-01-18 16:10:00,
2013-01-18 11:25:00,15.7,5.0,30.69,SW,226,2.0,7.0,64,0.00,,,0.00,weatherlink.com 1.10,2013-01-18 16:25:00,
2013-01-18 11:40:00,17.0,5.0,30.68,SW,219,2.0,9.0,60,0.00,,,0.00,weatherlink.com 1.10,2013-01-18 16:40:00,
2013-01-18 11:56:00,16.6,4.0,30.68,SW,214,8.0,8.0,59,0.00,,,0.00,weatherlink.com 1.10,2013-01-18 16:56:00,
2013-01-18 12:10:00,15.6,4.0,30.68,North,359,3.0,11.0,60,0.00,,,0.00,weatherlink.com 1.10,2013-01-18 17:10:00,
2013-01-18 12:25:00,15.2,5.0,30.69,South,170,2.0,6.0,64,0.00,,,0.00,weatherlink.com 1.10,2013-01-18 17:25:00,
2013-01-18 12:40:00,16.0,5.0,30.68,SW,233,1.0,9.0,63,0.00,,,0.00,weatherlink.com 1.10,2013-01-18 17:40:00,
2013-01-18 12:55:00,15.8,4.0,30.69,SSW,200,2.0,11.0,60,0.00,,,0.00,weatherlink.com 1.10,2013-01-18 17:55:00,
2013-01-18 13:10:00,16.9,5.0,30.69,SSE,162,1.0,12.0,59,0.00,,,0.00,weatherlink.com 1.10,2013-01-18 18:10:00,
2013-01-18 13:25:00,17.0,5.0,30.71,SW,215,3.0,11.0,60,0.00,,,0.00,weatherlink.com 1.10,2013-01-18 18:25:00,
2013-01-18 13:40:00,15.9,6.0,30.71,SSE,148,1.0,10.0,65,0.00,,,0.00,weatherlink.com 1.10,2013-01-18 18:40:00,
2013-01-18 13:55:00,15.9,7.0,30.71,SSW,210,2.0,7.0,67,0.00,,,0.00,weatherlink.com 1.10,2013-01-18 18:55:00,
2013-01-18 14:10:00,15.6,6.0,30.71,WNW,297,2.0,14.0,66,0.00,,,0.00,weatherlink.com 1.10,2013-01-18 19:10:00,
2013-01-18 14:26:00,15.9,7.0,30.71,NNE,27,3.0,-999.0,67,-99.99,,,0.00,weatherlink.com 1.10,2013-01-18 19:26:00,
2013-01-18 14:41:00,16.2,6.0,30.70,SSW,193,1.0,10.0,65,0.00,,,0.00,weatherlink.com 1.10,2013-01-18 19:41:00,
2013-01-18 14:56:00,16.8,6.0,30.71,SE,134,1.0,7.0,63,0.00,,,0.00,weatherlink.com 1.10,2013-01-18 19:56:00,
2013-01-18 15:11:00,16.4,5.0,30.70,WNW,298,4.0,8.0,61,0.00,,,0.00,weatherlink.com 1.10,2013-01-18 20:11:00,
2013-01-18 15:26:00,15.3,5.0,30.71,SSW,193,1.0,8.0,64,0.00,,,0.00,weatherlink.com 1.10,2013-01-18 20:26:00,
2013-01-18 15:41:00,15.1,5.0,30.71,SSE,162,5.0,6.0,64,0.00,,,0.00,weatherlink.com 1.10,2013-01-18 20:41:00,
2013-01-18 15:56:00,15.4,6.0,30.71,SW,222,0.0,6.0,66,0.00,,,0.00,weatherlink.com 1.10,2013-01-18 20:56:00,
2013-01-18 16:11:00,14.8,5.0,30.71,SW,224,4.0,5.0,65,0.00,,,0.00,weatherlink.com 1.10,2013-01-18 21:11:00,
2013-01-18 16:26:00,14.8,5.0,30.72,South,174,2.0,5.0,66,0.00,,,0.00,weatherlink.com 1.10,2013-01-18 21:26:00,
2013-01-18 16:41:00,14.1,5.0,30.72,SE,133,1.0,3.0,67,0.00,,,0.00,weatherlink.com 1.10,2013-01-18 21:41:00,
2013-01-18 16:56:00,13.8,5.0,30.73,South,184,0.0,4.0,67,0.00,,,0.00,weatherlink.com 1.10,2013-01-18 21:56:00,
2013-01-18 17:11:00,13.6,5.0,30.73,SW,236,2.0,3.0,68,0.00,,,0.00,weatherlink.com 1.10,2013-01-18 22:11:00,
2013-01-18 17:26:00,12.9,5.0,30.73,SW,236,1.0,2.0,70,0.00,,,0.00,weatherlink.com 1.10,2013-01-18 22:26:00,
2013-01-18 17:42:00,12.7,5.0,30.73,NW,323,1.0,3.0,71,0.00,,,0.00,weatherlink.com 1.10,2013-01-18 22:42:00,
2013-01-18 17:57:00,12.3,5.0,30.73,WNW,287,0.0,4.0,71,0.00,,,0.00,weatherlink.com 1.10,2013-01-18 22:57:00,
2013-01-18 18:12:00,12.0,5.0,30.74,NW,320,2.0,3.0,72,0.00,,,0.00,weatherlink.com 1.10,2013-01-18 23:12:00,
2013-01-18 18:27:00,12.0,5.0,30.74,SSW,210,1.0,2.0,72,0.00,,,0.00,weatherlink.com 1.10,2013-01-18 23:27:00,
2013-01-18 18:42:00,12.4,5.0,30.74,NNE,20,0.0,1.0,71,0.00,,,0.00,weatherlink.com 1.10,2013-01-18 23:42:00,
2013-01-18 18:57:00,12.7,5.0,30.73,SSE,165,1.0,2.0,70,0.00,,,0.00,weatherlink.com 1.10,2013-01-18 23:57:00,
2013-01-18 19:12:00,11.7,4.0,30.73,NW,323,2.0,2.0,72,0.00,,,0.00,weatherlink.com 1.10,2013-01-19 00:12:00,
2013-01-18 19:27:00,12.1,5.0,30.73,NNW,346,0.0,4.0,72,0.00,,,0.00,weatherlink.com 1.10,2013-01-19 00:27:00,
2013-01-18 19:42:00,12.6,5.0,30.73,NW,323,1.0,3.0,70,0.00,,,0.00,weatherlink.com 1.10,2013-01-19 00:42:00,
2013-01-18 19:57:00,12.8,5.0,30.73,ESE,122,3.0,5.0,70,0.00,,,0.00,weatherlink.com 1.10,2013-01-19 00:57:00,
2013-01-18 20:12:00,13.3,5.0,30.73,NNW,334,1.0,3.0,69,0.00,,,0.00,weatherlink.com 1.10,2013-01-19 01:12:00,
2013-01-18 20:27:00,13.6,5.0,30.72,SSE,159,2.0,8.0,69,0.00,,,0.00,weatherlink.com 1.10,2013-01-19 01:27:00,
2013-01-18 20:42:00,14.6,6.0,30.71,SW,224,0.0,6.0,68,0.00,,,0.00,weatherlink.com 1.10,2013-01-19 01:42:00,
2013-01-18 20:57:00,13.9,5.0,30.71,SW,229,0.0,2.0,69,0.00,,,0.00,weatherlink.com 1.10,2013-01-19 01:57:00,
2013-01-18 21:13:00,14.6,6.0,30.71,SSE,153,2.0,13.0,68,0.00,,,0.00,weatherlink.com 1.10,2013-01-19 02:13:00,
2013-01-18 21:28:00,15.5,6.0,30.72,SE,139,2.0,7.0,66,0.00,,,0.00,weatherlink.com 1.10,2013-01-19 02:28:00,
2013-01-18 21:43:00,15.9,7.0,30.72,SSW,200,1.0,7.0,67,0.00,,,0.00,weatherlink.com 1.10,2013-01-19 02:43:00,
2013-01-18 21:58:00,16.4,7.0,30.71,SW,217,2.0,8.0,67,0.00,,,0.00,weatherlink.com 1.10,2013-01-19 02:58:00,
2013-01-18 22:13:00,17.0,7.0,30.70,SSW,211,3.0,4.0,65,0.00,,,0.00,weatherlink.com 1.10,2013-01-19 03:13:00,
2013-01-18 22:28:00,17.3,7.0,30.69,NNE,32,0.0,2.0,65,0.00,,,0.00,weatherlink.com 1.10,2013-01-19 03:28:00,
2013-01-18 22:43:00,17.6,8.0,30.68,SSW,210,0.0,2.0,65,0.00,,,0.00,weatherlink.com 1.10,2013-01-19 03:43:00,
2013-01-18 22:58:00,17.8,7.0,30.68,South,170,2.0,3.0,63,0.00,,,0.00,weatherlink.com 1.10,2013-01-19 03:58:00,
2013-01-18 23:13:00,18.2,7.0,30.66,SSW,212,2.0,3.0,61,0.00,,,0.00,weatherlink.com 1.10,2013-01-19 04:13:00,
2013-01-18 23:28:00,19.2,7.0,30.66,SSW,208,2.0,7.0,58,0.00,,,0.00,weatherlink.com 1.10,2013-01-19 04:28:00,
2013-01-18 23:43:00,20.0,7.0,30.66,SSE,163,2.0,8.0,57,0.00,,,0.00,weatherlink.com 1.10,2013-01-19 04:43:00,
2013-01-18 23:58:00,21.0,8.0,30.65,East,84,2.0,9.0,57,0.00,,,0.00,weatherlink.com 1.10,2013-01-19 04:58:00,